VK3GY-13 Weather Reports


Display with metric or nautical units.
time (UTC)temp
F
wind
direction
speed
MPH
gust
MPH
rain 1hr
in
rain 24hr
in
rain mn
in
humidity
%
barometer
mb
20260902013011 58 281 4.0 12.0 0.00 0.03 0.00 68 1013.5
20260902012011 58 284 6.0 12.0 0.00 0.03 0.00 70 1013.7
20260902011010 58 254 5.0 9.0 0.00 0.03 0.00 69 1013.8
20260902010010 57 298 6.0 10.0 0.00 0.03 0.00 68 1013.8
20260902005011 57 278 5.0 10.0 0.00 0.03 0.00 70 1013.9
20260902004011 57 264 6.0 10.0 0.00 0.03 0.00 70 1014.1
20260902003011 57 271 4.0 12.0 0.00 0.03 0.00 69 1014.1
20260902002013 57 258 7.0 12.0 0.00 0.03 0.00 70 1014.2
20260902000010 56 258 6.0 12.0 0.00 0.03 0.00 77 1014.4
20260901235011 56 261 3.0 12.0 0.00 0.03 0.00 78 1014.4
20260901234011 56 271 6.0 12.0 0.00 0.03 0.00 78 1014.3
20260901233011 55 253 4.0 12.0 0.00 0.03 0.00 78 1014.3
20260901232010 55 275 6.0 12.0 0.00 0.03 0.00 79 1014.2
20260901231011 55 278 7.0 12.0 0.00 0.03 0.00 79 1014.3
20260901230010 55 261 5.0 12.0 0.00 0.03 0.00 79 1014.4
20260901225011 55 268 5.0 12.0 0.00 0.03 0.00 79 1014.3
20260901224011 54 249 6.0 12.0 0.00 0.03 0.00 80 1014.1
20260901223011 54 269 6.0 10.0 0.00 0.03 0.00 81 1013.9
20260901222010 54 271 6.0 12.0 0.00 0.03 0.00 82 1013.9
20260901221011 54 276 3.0 10.0 0.00 0.03 0.00 83 1013.8
20260901220010 54 271 5.0 10.0 0.00 0.03 0.00 85 1013.8
20260901215011 54 281 5.0 15.0 0.00 0.03 0.00 86 1013.8
20260901214011 54 271 4.0 12.0 0.00 0.03 0.00 87 1013.7
20260901213012 54 288 4.0 10.0 0.00 0.03 0.00 87 1013.7
20260901212011 54 263 4.0 10.0 0.00 0.03 0.00 88 1013.5
20260901210010 54 269 5.0 9.0 0.00 0.03 0.00 89 1013.2
20260901205011 53 248 4.0 9.0 0.00 0.03 0.00 89 1013.2
20260901203011 54 270 3.0 7.0 0.00 0.03 0.00 90 1012.8
20260901202012 54 265 2.0 5.0 0.00 0.03 0.00 90 1012.6
20260901195011 54 254 1.0 5.0 0.00 0.03 0.00 90 1012.3
20260901193011 54 247 2.0 7.0 0.00 0.03 0.00 90 1012.1
20260901192010 55 248 3.0 9.0 0.00 0.03 0.00 90 1012.0
20260901191011 55 232 3.0 8.0 0.00 0.03 0.00 89 1012.0
20260901185011 55 229 6.0 12.0 0.00 0.03 0.00 89 1011.8
20260901184011 55 234 6.0 14.0 0.00 0.03 0.00 89 1011.6
20260901183011 55 230 5.0 13.0 0.00 0.03 0.00 89 1011.5
20260901182011 56 229 4.0 8.0 0.00 0.03 0.00 89 1011.4
20260901181011 56 231 4.0 8.0 0.00 0.03 0.00 89 1011.3
20260901180010 56 199 4.0 9.0 0.00 0.03 0.00 89 1011.2
20260901174010 56 214 6.0 13.0 0.00 0.03 0.00 88 1011.1
20260901173011 57 212 5.0 13.0 0.00 0.03 0.00 87 1011.1
20260901172013 57 224 7.0 16.0 0.00 0.03 0.00 86 1011.0
20260901170011 58 244 4.0 9.0 0.00 0.03 0.00 85 1010.6
20260901165011 58 230 3.0 8.0 0.00 0.03 0.00 85 1010.5
20260901164011 58 222 3.0 6.0 0.00 0.03 0.00 84 1010.7
20260901163011 58 305 2.0 3.0 0.00 0.03 0.00 84 1010.7
20260901162011 58 305 1.0 3.0 0.00 0.03 0.00 84 1010.7
20260901161011 59 305 1.0 2.0 0.00 0.03 0.00 83 1010.8
20260901160010 59 305 0.0 2.0 0.00 0.03 0.00 83 1011.0
20260901155011 59 305 2.0 3.0 0.00 0.03 0.00 83 1011.0
20260901153011 59 305 2.0 5.0 0.00 0.03 0.00 83 1011.0
20260901152011 59 310 3.0 7.0 0.00 0.03 0.00 82 1011.0
20260901150011 60 282 4.0 9.0 0.00 0.03 0.00 82 1010.9
20260901145011 60 273 4.0 8.0 0.00 0.03 0.00 81 1010.9
20260901144011 60 276 5.0 12.0 0.00 0.03 0.00 79 1010.9
20260901143011 60 268 7.0 13.0 0.00 0.03 0.00 78 1011.0
20260901141011 61 294 8.0 14.0 0.00 0.03 0.00 75 1011.0
20260901140011 61 297 6.0 10.0 0.00 0.03 0.00 75 1011.0
20260901135011 61 289 5.0 12.0 0.00 0.03 0.03 75 1011.0
20260901134012 61 296 6.0 12.0 0.00 0.03 0.03 75 1011.0
20260901131011 61 309 9.0 14.0 0.01 0.03 0.03 76 1010.9
20260901130011 61 320 6.0 15.0 0.01 0.03 0.03 77 1010.9
20260901124011 60 310 6.0 14.0 0.01 0.03 0.03 78 1010.9
20260901123011 60 298 5.0 10.0 0.01 0.02 0.02 77 1011.1
20260901122011 61 308 4.0 12.0 0.01 0.02 0.02 77 1010.9
20260901121011 61 335 5.0 9.0 0.01 0.02 0.02 76 1011.0
20260901115012 61 349 4.0 9.0 0.01 0.02 0.02 75 1010.8
20260901114015 61 301 3.0 9.0 0.01 0.02 0.02 73 1011.1
20260901113011 62 316 6.0 12.0 0.00 0.01 0.01 72 1011.2
20260901112012 62 333 4.0 12.0 0.00 0.01 0.01 71 1011.1
20260901111012 62 312 5.0 12.0 0.00 0.01 0.01 69 1010.9
20260901110012 63 321 6.0 17.0 0.01 0.01 0.01 68 1010.8
20260901105011 63 316 3.0 12.0 0.01 0.01 0.01 67 1010.9
20260901104014 63 329 4.0 12.0 0.01 0.01 0.01 65 1010.8
20260901103010 63 328 6.0 13.0 0.01 0.01 0.01 67 1010.7
20260901102013 63 295 5.0 12.0 0.01 0.01 0.01 68 1010.8
20260901091010 65 352 3.0 10.0 0.00 0.00 0.00 58 1010.8
20260901090010 65 329 3.0 12.0 0.00 0.00 0.00 57 1011.1
20260901085011 65 315 5.0 12.0 0.00 0.00 0.00 57 1011.2
20260901084010 65 336 3.0 12.0 0.00 0.00 0.00 57 1011.3
20260901083011 65 346 5.0 12.0 0.00 0.00 0.00 57 1011.5
20260901082010 65 327 3.0 10.0 0.00 0.00 0.00 57 1011.6
20260901081011 65 349 5.0 12.0 0.00 0.00 0.00 56 1011.6
20260901080011 65 349 7.0 14.0 0.00 0.00 0.00 56 1011.8
20260901074011 66 324 6.0 12.0 0.00 0.00 0.00 55 1011.9
20260901071011 67 321 5.0 13.0 0.00 0.00 0.00 53 1011.9
20260901070011 67 314 8.0 16.0 0.00 0.00 0.00 52 1011.9
20260901065011 67 331 7.0 16.0 0.00 0.00 0.00 53 1011.8
20260901064011 68 312 7.0 15.0 0.00 0.00 0.00 53 1011.9
20260901063011 68 323 6.0 20.0 0.00 0.00 0.00 51 1011.8
20260901062010 68 304 12.0 20.0 0.00 0.00 0.00 50 1011.8
20260901061011 68 315 7.0 20.0 0.00 0.00 0.00 51 1011.8
20260901055011 69 300 6.0 18.0 0.00 0.00 0.00 51 1011.7
20260901054011 69 308 5.0 15.0 0.00 0.00 0.00 52 1011.7
20260901050011 70 331 12.0 22.0 0.00 0.00 0.00 48 1011.7
20260901045011 70 317 12.0 25.0 0.00 0.00 0.00 48 1011.7
20260901044012 70 315 10.0 23.0 0.00 0.00 0.00 49 1012.0
20260901043011 70 325 10.0 25.0 0.00 0.00 0.00 49 1012.1
20260901041010 71 326 11.0 21.0 0.00 0.00 0.00 48 1012.3
20260901040012 70 317 10.0 29.0 0.00 0.00 0.00 48 1012.6
20260901035011 70 305 13.0 29.0 0.00 0.00 0.00 47 1013.0
20260901034010 71 301 14.0 29.0 0.00 0.00 0.00 46 1013.2
20260901033011 71 315 12.0 26.0 0.00 0.00 0.00 47 1013.4
20260901032011 71 299 17.0 26.0 0.00 0.00 0.00 45 1013.6
20260901031011 71 298 13.0 29.0 0.00 0.00 0.00 45 1013.8
20260901030010 71 298 14.0 29.0 0.00 0.00 0.00 45 1013.9
20260901025011 71 303 12.0 24.0 0.00 0.00 0.00 46 1014.2
20260901024011 71 305 14.0 26.0 0.00 0.00 0.00 45 1014.3
20260901023011 71 323 13.0 26.0 0.00 0.00 0.00 46 1014.6
20260901022011 70 322 12.0 22.0 0.00 0.00 0.00 48 1014.8